Time,TemperatureF,DewpointF,PressureIn,WindDirection,WindDirectionDegrees,WindSpeedMPH,WindSpeedGustMPH,Humidity,HourlyPrecipIn,Conditions,Clouds,dailyrainin,SoftwareType,DateUTC
2013-08-18 00:01:00,56.5,52.0,29.85,East,100,0.0,0.0,85,0.00,,,0.00,LWC V2.00 B2112,2013-08-18 07:01:00,
2013-08-18 00:06:00,56.4,51.9,29.85,SE,142,0.0,1.0,85,0.00,,,0.00,LWC V2.00 B2112,2013-08-18 07:06:00,
2013-08-18 00:11:00,56.4,51.9,29.84,ESE,106,0.0,1.0,85,0.00,,,0.00,LWC V2.00 B2112,2013-08-18 07:11:00,
2013-08-18 00:16:00,56.3,51.8,29.84,NW,312,0.0,1.0,85,0.00,,,0.00,LWC V2.00 B2112,2013-08-18 07:16:00,
2013-08-18 00:21:00,56.2,51.7,29.84,WNW,288,0.0,0.0,85,0.00,,,0.00,LWC V2.00 B2112,2013-08-18 07:21:00,
2013-08-18 00:26:00,56.2,51.7,29.84,SE,124,0.0,2.0,85,0.00,,,0.00,LWC V2.00 B2112,2013-08-18 07:26:00,
2013-08-18 00:31:00,56.1,52.0,29.84,ESE,112,1.0,1.0,86,0.00,,,0.00,LWC V2.00 B2112,2013-08-18 07:31:00,
2013-08-18 00:36:00,56.0,51.6,29.84,ESE,111,0.0,0.0,85,0.00,,,0.00,LWC V2.00 B2112,2013-08-18 07:36:00,
2013-08-18 00:41:00,55.8,51.7,29.83,East,83,0.0,1.0,86,0.00,,,0.00,LWC V2.00 B2112,2013-08-18 07:41:00,
2013-08-18 00:46:00,55.8,51.4,29.84,ESE,106,1.0,2.0,85,0.00,,,0.00,LWC V2.00 B2112,2013-08-18 07:46:00,
2013-08-18 00:51:00,55.9,51.5,29.84,SSW,204,0.0,1.0,85,0.00,,,0.00,LWC V2.00 B2112,2013-08-18 07:51:00,
2013-08-18 00:56:00,55.8,51.7,29.83,East,86,0.0,0.0,86,0.00,,,0.00,LWC V2.00 B2112,2013-08-18 07:56:00,
2013-08-18 01:01:00,55.7,51.6,29.83,ENE,72,0.0,0.0,86,0.00,,,0.00,LWC V2.00 B2112,2013-08-18 08:01:00,
2013-08-18 01:06:00,55.7,51.6,29.84,East,99,0.0,0.0,86,0.00,,,0.00,LWC V2.00 B2112,2013-08-18 08:06:00,
2013-08-18 01:11:00,55.6,51.5,29.83,SW,218,0.0,1.0,86,0.00,,,0.00,LWC V2.00 B2112,2013-08-18 08:11:00,
2013-08-18 01:16:00,55.4,51.3,29.83,SW,218,0.0,0.0,86,0.00,,,0.00,LWC V2.00 B2112,2013-08-18 08:16:00,
2013-08-18 01:21:00,55.1,51.0,29.83,SW,218,0.0,0.0,86,0.00,,,0.00,LWC V2.00 B2112,2013-08-18 08:21:00,
2013-08-18 01:26:00,54.7,50.6,29.83,SW,218,0.0,0.0,86,0.00,,,0.00,LWC V2.00 B2112,2013-08-18 08:26:00,
2013-08-18 01:31:00,54.3,50.2,29.83,SW,218,0.0,0.0,86,0.00,,,0.00,LWC V2.00 B2112,2013-08-18 08:31:00,
2013-08-18 01:36:00,53.9,49.8,29.83,SW,218,0.0,0.0,86,0.00,,,0.00,LWC V2.00 B2112,2013-08-18 08:36:00,
2013-08-18 01:41:00,53.6,49.5,29.82,SW,218,0.0,0.0,86,0.00,,,0.00,LWC V2.00 B2112,2013-08-18 08:41:00,
2013-08-18 01:46:00,53.3,49.2,29.82,SW,218,0.0,0.0,86,0.00,,,0.00,LWC V2.00 B2112,2013-08-18 08:46:00,
2013-08-18 01:51:00,52.9,48.8,29.82,SW,218,0.0,0.0,86,0.00,,,0.00,LWC V2.00 B2112,2013-08-18 08:51:00,
2013-08-18 01:56:00,52.6,48.5,29.82,SW,218,0.0,0.0,86,0.00,,,0.00,LWC V2.00 B2112,2013-08-18 08:56:00,
2013-08-18 02:01:00,52.5,48.4,29.82,SW,218,0.0,0.0,86,0.00,,,0.00,LWC V2.00 B2112,2013-08-18 09:01:00,
2013-08-18 02:06:00,52.4,48.3,29.82,SW,218,0.0,0.0,86,0.00,,,0.00,LWC V2.00 B2112,2013-08-18 09:06:00,
2013-08-18 02:11:00,52.3,48.2,29.82,SW,217,0.0,0.0,86,0.00,,,0.00,LWC V2.00 B2112,2013-08-18 09:11:00,
2013-08-18 02:16:00,52.4,48.3,29.82,SW,218,0.0,0.0,86,0.00,,,0.00,LWC V2.00 B2112,2013-08-18 09:16:00,
2013-08-18 02:21:00,52.6,48.5,29.82,SW,218,0.0,0.0,86,0.00,,,0.00,LWC V2.00 B2112,2013-08-18 09:21:00,
2013-08-18 02:26:00,52.8,48.7,29.82,SW,218,0.0,0.0,86,0.00,,,0.00,LWC V2.00 B2112,2013-08-18 09:26:00,
2013-08-18 02:31:00,52.9,48.8,29.82,SW,218,0.0,0.0,86,0.00,,,0.00,LWC V2.00 B2112,2013-08-18 09:31:00,
2013-08-18 02:36:00,53.2,49.1,29.82,SW,218,0.0,0.0,86,0.00,,,0.00,LWC V2.00 B2112,2013-08-18 09:36:00,
2013-08-18 02:41:00,53.3,49.2,29.82,SW,218,0.0,0.0,86,0.00,,,0.00,LWC V2.00 B2112,2013-08-18 09:41:00,
2013-08-18 02:46:00,53.5,49.4,29.83,SW,218,0.0,0.0,86,0.00,,,0.00,LWC V2.00 B2112,2013-08-18 09:46:00,
2013-08-18 02:51:00,53.7,49.6,29.82,SW,218,0.0,0.0,86,0.00,,,0.00,LWC V2.00 B2112,2013-08-18 09:51:00,
2013-08-18 02:56:00,53.9,49.8,29.82,SW,218,0.0,0.0,86,0.00,,,0.00,LWC V2.00 B2112,2013-08-18 09:56:00,
2013-08-18 03:01:00,54.1,50.0,29.81,SW,218,0.0,0.0,86,0.00,,,0.00,LWC V2.00 B2112,2013-08-18 10:01:00,
2013-08-18 03:06:00,54.5,50.4,29.82,East,98,0.0,0.0,86,0.00,,,0.00,LWC V2.00 B2112,2013-08-18 10:06:00,
2013-08-18 03:11:00,55.0,50.9,29.83,East,98,0.0,0.0,86,0.00,,,0.00,LWC V2.00 B2112,2013-08-18 10:11:00,
2013-08-18 03:16:00,55.2,51.1,29.83,East,97,0.0,0.0,86,0.00,,,0.00,LWC V2.00 B2112,2013-08-18 10:16:00,
2013-08-18 03:21:00,55.4,51.3,29.82,East,97,0.0,0.0,86,0.00,,,0.00,LWC V2.00 B2112,2013-08-18 10:21:00,
2013-08-18 03:26:00,55.5,51.4,29.81,East,96,0.0,0.0,86,0.00,,,0.00,LWC V2.00 B2112,2013-08-18 10:26:00,
2013-08-18 03:31:00,55.5,51.4,29.82,East,98,0.0,0.0,86,0.00,,,0.00,LWC V2.00 B2112,2013-08-18 10:31:00,
2013-08-18 03:36:00,55.5,51.4,29.82,East,98,0.0,0.0,86,0.00,,,0.00,LWC V2.00 B2112,2013-08-18 10:36:00,
2013-08-18 03:41:00,55.4,51.3,29.82,East,98,0.0,0.0,86,0.00,,,0.00,LWC V2.00 B2112,2013-08-18 10:41:00,
2013-08-18 03:46:00,55.4,51.3,29.82,East,98,0.0,0.0,86,0.00,,,0.00,LWC V2.00 B2112,2013-08-18 10:46:00,
2013-08-18 03:51:00,55.4,51.3,29.82,East,96,0.0,0.0,86,0.00,,,0.00,LWC V2.00 B2112,2013-08-18 10:51:00,
2013-08-18 03:56:00,55.4,51.3,29.82,East,98,0.0,0.0,86,0.00,,,0.00,LWC V2.00 B2112,2013-08-18 10:56:00,
2013-08-18 04:01:00,55.4,51.3,29.82,East,98,0.0,0.0,86,0.00,,,0.00,LWC V2.00 B2112,2013-08-18 11:01:00,
2013-08-18 04:06:00,55.4,51.3,29.81,East,98,0.0,0.0,86,0.00,,,0.00,LWC V2.00 B2112,2013-08-18 11:06:00,
2013-08-18 04:11:00,55.4,51.3,29.82,East,97,0.0,0.0,86,0.00,,,0.00,LWC V2.00 B2112,2013-08-18 11:11:00,
2013-08-18 04:16:00,55.4,51.3,29.82,East,97,0.0,0.0,86,0.00,,,0.00,LWC V2.00 B2112,2013-08-18 11:16:00,
2013-08-18 04:21:00,55.4,51.3,29.82,East,97,0.0,0.0,86,0.00,,,0.00,LWC V2.00 B2112,2013-08-18 11:21:00,
2013-08-18 04:26:00,55.3,51.2,29.82,East,97,0.0,0.0,86,0.00,,,0.00,LWC V2.00 B2112,2013-08-18 11:26:00,
2013-08-18 04:31:00,55.3,51.2,29.82,East,96,0.0,0.0,86,0.00,,,0.00,LWC V2.00 B2112,2013-08-18 11:31:00,
2013-08-18 04:36:00,55.2,51.1,29.82,East,96,0.0,0.0,86,0.00,,,0.00,LWC V2.00 B2112,2013-08-18 11:36:00,
2013-08-18 04:41:00,55.1,51.0,29.82,East,98,0.0,0.0,86,0.00,,,0.00,LWC V2.00 B2112,2013-08-18 11:41:00,
2013-08-18 04:46:00,55.2,51.1,29.82,East,96,0.0,0.0,86,0.00,,,0.00,LWC V2.00 B2112,2013-08-18 11:46:00,
2013-08-18 04:51:00,55.3,51.2,29.82,East,96,0.0,0.0,86,0.00,,,0.00,LWC V2.00 B2112,2013-08-18 11:51:00,
2013-08-18 04:56:00,55.3,51.2,29.82,East,98,0.0,0.0,86,0.00,,,0.00,LWC V2.00 B2112,2013-08-18 11:56:00,
2013-08-18 05:01:00,55.4,51.3,29.82,East,97,0.0,0.0,86,0.00,,,0.00,LWC V2.00 B2112,2013-08-18 12:01:00,
2013-08-18 05:06:00,55.4,51.3,29.82,East,97,0.0,0.0,86,0.00,,,0.00,LWC V2.00 B2112,2013-08-18 12:06:00,
2013-08-18 05:11:00,55.4,51.3,29.82,East,97,0.0,0.0,86,0.00,,,0.00,LWC V2.00 B2112,2013-08-18 12:11:00,
2013-08-18 05:16:00,55.3,51.2,29.82,East,97,0.0,0.0,86,0.00,,,0.00,LWC V2.00 B2112,2013-08-18 12:16:00,
2013-08-18 05:21:00,55.3,51.2,29.82,East,98,0.0,0.0,86,0.00,,,0.00,LWC V2.00 B2112,2013-08-18 12:21:00,
2013-08-18 05:26:00,55.3,51.2,29.82,East,97,0.0,0.0,86,0.00,,,0.00,LWC V2.00 B2112,2013-08-18 12:26:00,
2013-08-18 05:31:00,55.3,51.2,29.82,East,98,0.0,0.0,86,0.00,,,0.00,LWC V2.00 B2112,2013-08-18 12:31:00,
2013-08-18 05:36:00,55.3,51.2,29.82,East,96,0.0,0.0,86,0.00,,,0.00,LWC V2.00 B2112,2013-08-18 12:36:00,
2013-08-18 05:41:00,55.2,51.1,29.82,East,98,0.0,0.0,86,0.00,,,0.00,LWC V2.00 B2112,2013-08-18 12:41:00,
2013-08-18 05:46:00,55.0,50.9,29.82,East,98,0.0,0.0,86,0.00,,,0.00,LWC V2.00 B2112,2013-08-18 12:46:00,
2013-08-18 05:51:00,54.9,50.8,29.82,East,97,0.0,0.0,86,0.00,,,0.00,LWC V2.00 B2112,2013-08-18 12:51:00,
2013-08-18 05:56:00,54.6,50.5,29.82,East,97,0.0,0.0,86,0.00,,,0.00,LWC V2.00 B2112,2013-08-18 12:56:00,
2013-08-18 06:01:00,54.4,50.3,29.82,East,97,0.0,0.0,86,0.00,,,0.00,LWC V2.00 B2112,2013-08-18 13:01:00,
2013-08-18 06:06:00,54.1,50.0,29.82,East,98,0.0,0.0,86,0.00,,,0.00,LWC V2.00 B2112,2013-08-18 13:06:00,
2013-08-18 06:11:00,53.8,49.7,29.82,East,98,0.0,0.0,86,0.00,,,0.00,LWC V2.00 B2112,2013-08-18 13:11:00,
2013-08-18 06:16:00,53.6,49.5,29.82,East,97,0.0,0.0,86,0.00,,,0.00,LWC V2.00 B2112,2013-08-18 13:16:00,
2013-08-18 06:21:00,53.4,49.3,29.82,East,98,0.0,0.0,86,0.00,,,0.00,LWC V2.00 B2112,2013-08-18 13:21:00,
2013-08-18 06:26:00,53.3,49.2,29.83,East,97,0.0,0.0,86,0.00,,,0.00,LWC V2.00 B2112,2013-08-18 13:26:00,
2013-08-18 06:31:00,53.1,49.0,29.83,ESE,102,0.0,0.0,86,0.00,,,0.00,LWC V2.00 B2112,2013-08-18 13:31:00,
2013-08-18 06:36:00,52.8,48.7,29.83,ESE,102,0.0,0.0,86,0.00,,,0.00,LWC V2.00 B2112,2013-08-18 13:36:00,
2013-08-18 06:41:00,52.6,48.5,29.83,East,99,0.0,0.0,86,0.00,,,0.00,LWC V2.00 B2112,2013-08-18 13:41:00,
2013-08-18 06:46:00,52.5,48.4,29.83,East,99,0.0,0.0,86,0.00,,,0.00,LWC V2.00 B2112,2013-08-18 13:46:00,
2013-08-18 06:51:00,52.2,48.1,29.83,East,99,0.0,0.0,86,0.00,,,0.00,LWC V2.00 B2112,2013-08-18 13:51:00,
2013-08-18 06:56:00,52.0,47.9,29.83,East,98,0.0,0.0,86,0.00,,,0.00,LWC V2.00 B2112,2013-08-18 13:56:00,
2013-08-18 07:01:00,52.0,47.9,29.83,East,99,0.0,0.0,86,0.00,,,0.00,LWC V2.00 B2112,2013-08-18 14:01:00,
2013-08-18 07:06:00,52.1,48.0,29.83,East,98,0.0,0.0,86,0.00,,,0.00,LWC V2.00 B2112,2013-08-18 14:06:00,
2013-08-18 07:11:00,52.4,48.3,29.83,East,99,0.0,0.0,86,0.00,,,0.00,LWC V2.00 B2112,2013-08-18 14:11:00,
2013-08-18 07:16:00,52.6,48.5,29.83,East,99,0.0,0.0,86,0.00,,,0.00,LWC V2.00 B2112,2013-08-18 14:16:00,
2013-08-18 07:21:00,52.8,48.7,29.84,East,98,0.0,0.0,86,0.00,,,0.00,LWC V2.00 B2112,2013-08-18 14:21:00,
2013-08-18 07:26:00,53.1,49.0,29.83,East,99,0.0,0.0,86,0.00,,,0.00,LWC V2.00 B2112,2013-08-18 14:26:00,
2013-08-18 07:31:00,53.5,49.4,29.83,East,99,0.0,0.0,86,0.00,,,0.00,LWC V2.00 B2112,2013-08-18 14:31:00,
2013-08-18 07:36:00,53.8,49.7,29.83,East,100,0.0,0.0,86,0.00,,,0.00,LWC V2.00 B2112,2013-08-18 14:36:00,
2013-08-18 07:41:00,54.1,50.0,29.83,East,101,0.0,0.0,86,0.00,,,0.00,LWC V2.00 B2112,2013-08-18 14:41:00,
2013-08-18 07:46:00,54.3,50.2,29.84,East,101,0.0,0.0,86,0.00,,,0.00,LWC V2.00 B2112,2013-08-18 14:46:00,
2013-08-18 07:51:00,55.0,50.9,29.84,East,96,0.0,1.0,86,0.00,,,0.00,LWC V2.00 B2112,2013-08-18 14:51:00,
2013-08-18 07:56:00,55.7,51.6,29.84,ESE,113,0.0,0.0,86,0.00,,,0.00,LWC V2.00 B2112,2013-08-18 14:56:00,
2013-08-18 08:01:00,56.3,52.2,29.84,ENE,75,0.0,2.0,86,0.00,,,0.00,LWC V2.00 B2112,2013-08-18 15:01:00,
2013-08-18 08:06:00,56.7,52.6,29.84,East,96,2.0,3.0,86,0.00,,,0.00,LWC V2.00 B2112,2013-08-18 15:06:00,
2013-08-18 08:11:00,57.4,52.9,29.84,ESE,113,0.0,3.0,85,0.00,,,0.00,LWC V2.00 B2112,2013-08-18 15:11:00,
2013-08-18 08:16:00,58.4,53.9,29.84,NNE,27,2.0,3.0,85,0.00,,,0.00,LWC V2.00 B2112,2013-08-18 15:16:00,
2013-08-18 08:21:00,58.9,54.7,29.84,NE,54,2.0,3.0,86,0.00,,,0.00,LWC V2.00 B2112,2013-08-18 15:21:00,
2013-08-18 08:26:00,59.7,55.2,29.83,East,84,0.0,2.0,85,0.00,,,0.00,LWC V2.00 B2112,2013-08-18 15:26:00,
2013-08-18 08:31:00,60.7,56.2,29.83,ESE,105,2.0,2.0,85,0.00,,,0.00,LWC V2.00 B2112,2013-08-18 15:31:00,
2013-08-18 08:36:00,61.5,56.9,29.84,ENE,60,2.0,3.0,85,0.00,,,0.00,LWC V2.00 B2112,2013-08-18 15:36:00,
2013-08-18 08:41:00,62.3,57.4,29.84,ESE,108,0.0,3.0,84,0.00,,,0.00,LWC V2.00 B2112,2013-08-18 15:41:00,
2013-08-18 08:46:00,63.1,57.8,29.84,ENE,57,1.0,3.0,83,0.00,,,0.00,LWC V2.00 B2112,2013-08-18 15:46:00,
2013-08-18 08:51:00,63.6,58.0,29.84,ENE,78,1.0,2.0,82,0.00,,,0.00,LWC V2.00 B2112,2013-08-18 15:51:00,
2013-08-18 08:56:00,64.3,58.7,29.84,ENE,68,1.0,2.0,82,0.00,,,0.00,LWC V2.00 B2112,2013-08-18 15:56:00,
2013-08-18 09:01:00,65.3,59.3,29.84,East,99,1.0,1.0,81,0.00,,,0.00,LWC V2.00 B2112,2013-08-18 16:01:00,
2013-08-18 09:06:00,66.3,59.9,29.84,East,94,0.0,2.0,80,0.00,,,0.00,LWC V2.00 B2112,2013-08-18 16:06:00,
2013-08-18 09:11:00,67.1,60.0,29.84,ESE,104,0.0,0.0,78,0.00,,,0.00,LWC V2.00 B2112,2013-08-18 16:11:00,
2013-08-18 09:16:00,67.6,60.5,29.84,NW,306,0.0,1.0,78,0.00,,,0.00,LWC V2.00 B2112,2013-08-18 16:16:00,
2013-08-18 09:21:00,68.6,60.7,29.84,ESE,104,0.0,0.0,76,0.00,,,0.00,LWC V2.00 B2112,2013-08-18 16:21:00,
2013-08-18 09:26:00,69.1,60.8,29.84,ESE,113,0.0,0.0,75,0.00,,,0.00,LWC V2.00 B2112,2013-08-18 16:26:00,
2013-08-18 09:31:00,70.0,61.3,29.84,ESE,113,0.0,0.0,74,0.00,,,0.00,LWC V2.00 B2112,2013-08-18 16:31:00,
2013-08-18 09:36:00,71.3,61.8,29.84,ESE,113,0.0,0.0,72,0.00,,,0.00,LWC V2.00 B2112,2013-08-18 16:36:00,
2013-08-18 09:41:00,71.4,61.1,29.84,ESE,115,0.0,0.0,70,0.00,,,0.00,LWC V2.00 B2112,2013-08-18 16:41:00,
2013-08-18 09:46:00,72.0,62.5,29.84,ESE,119,0.0,0.0,72,0.00,,,0.00,LWC V2.00 B2112,2013-08-18 16:46:00,
2013-08-18 09:51:00,72.5,61.7,29.84,ENE,67,0.0,1.0,69,0.00,,,0.00,LWC V2.00 B2112,2013-08-18 16:51:00,
2013-08-18 09:56:00,72.7,61.9,29.84,SW,214,1.0,1.0,69,0.00,,,0.00,LWC V2.00 B2112,2013-08-18 16:56:00,
2013-08-18 10:01:00,72.5,61.7,29.84,WSW,249,1.0,2.0,69,0.00,,,0.00,LWC V2.00 B2112,2013-08-18 17:01:00,
2013-08-18 10:06:00,72.3,62.0,29.84,SW,233,0.0,1.0,70,0.00,,,0.00,LWC V2.00 B2112,2013-08-18 17:06:00,
2013-08-18 10:11:00,72.6,62.6,29.84,WSW,246,1.0,1.0,71,0.00,,,0.00,LWC V2.00 B2112,2013-08-18 17:11:00,
2013-08-18 10:16:00,73.1,62.7,29.84,WSW,257,0.0,2.0,70,0.00,,,0.00,LWC V2.00 B2112,2013-08-18 17:16:00,
2013-08-18 10:21:00,73.5,62.7,29.84,WSW,240,0.0,2.0,69,0.00,,,0.00,LWC V2.00 B2112,2013-08-18 17:21:00,
2013-08-18 10:26:00,73.8,63.4,29.83,WSW,239,1.0,2.0,70,0.00,,,0.00,LWC V2.00 B2112,2013-08-18 17:26:00,
2013-08-18 10:31:00,74.5,63.2,29.83,WSW,240,0.0,1.0,68,0.00,,,0.00,LWC V2.00 B2112,2013-08-18 17:31:00,
2013-08-18 10:36:00,75.4,64.1,29.83,East,101,0.0,0.0,68,0.00,,,0.00,LWC V2.00 B2112,2013-08-18 17:36:00,
2013-08-18 10:41:00,76.2,64.0,29.83,ESE,120,0.0,2.0,66,0.00,,,0.00,LWC V2.00 B2112,2013-08-18 17:41:00,
2013-08-18 10:46:00,76.0,63.4,29.83,South,172,0.0,1.0,65,0.00,,,0.00,LWC V2.00 B2112,2013-08-18 17:46:00,
2013-08-18 10:51:00,76.2,63.6,29.83,NW,304,1.0,2.0,65,0.00,,,0.00,LWC V2.00 B2112,2013-08-18 17:51:00,
2013-08-18 10:56:00,76.1,63.9,29.84,WSW,255,1.0,2.0,66,0.00,,,0.00,LWC V2.00 B2112,2013-08-18 17:56:00,
2013-08-18 11:01:00,75.9,63.7,29.84,WSW,250,0.0,2.0,66,0.00,,,0.00,LWC V2.00 B2112,2013-08-18 18:01:00,
2013-08-18 11:06:00,75.9,63.7,29.83,WNW,290,1.0,2.0,66,0.00,,,0.00,LWC V2.00 B2112,2013-08-18 18:06:00,
2013-08-18 11:11:00,75.8,63.6,29.83,East,97,0.0,1.0,66,0.00,,,0.00,LWC V2.00 B2112,2013-08-18 18:11:00,
2013-08-18 11:16:00,75.7,63.5,29.83,West,264,1.0,3.0,66,0.00,,,0.00,LWC V2.00 B2112,2013-08-18 18:16:00,
2013-08-18 11:21:00,75.6,63.4,29.83,West,266,2.0,3.0,66,0.00,,,0.00,LWC V2.00 B2112,2013-08-18 18:21:00,
2013-08-18 11:26:00,75.1,62.9,29.83,West,259,1.0,1.0,66,0.00,,,0.00,LWC V2.00 B2112,2013-08-18 18:26:00,
2013-08-18 11:31:00,74.9,63.2,29.83,West,277,2.0,3.0,67,0.00,,,0.00,LWC V2.00 B2112,2013-08-18 18:31:00,
2013-08-18 11:36:00,74.9,63.6,29.83,South,186,2.0,5.0,68,0.00,,,0.00,LWC V2.00 B2112,2013-08-18 18:36:00,
2013-08-18 11:41:00,74.8,63.5,29.84,SSW,205,3.0,3.0,68,0.00,,,0.00,LWC V2.00 B2112,2013-08-18 18:41:00,
2013-08-18 11:46:00,74.6,63.3,29.84,South,171,2.0,3.0,68,0.00,,,0.00,LWC V2.00 B2112,2013-08-18 18:46:00,
2013-08-18 11:51:00,74.2,62.9,29.83,East,94,2.0,7.0,68,0.00,,,0.00,LWC V2.00 B2112,2013-08-18 18:51:00,
2013-08-18 11:56:00,74.4,63.5,29.83,South,190,4.0,4.0,69,0.00,,,0.00,LWC V2.00 B2112,2013-08-18 18:56:00,
2013-08-18 12:01:00,74.6,63.3,29.83,WSW,238,7.0,7.0,68,0.00,,,0.00,LWC V2.00 B2112,2013-08-18 19:01:00,
2013-08-18 12:06:00,74.3,63.5,29.83,SW,214,2.0,7.0,69,0.00,,,0.00,LWC V2.00 B2112,2013-08-18 19:06:00,
2013-08-18 12:11:00,74.4,63.5,29.83,East,94,1.0,4.0,69,0.00,,,0.00,LWC V2.00 B2112,2013-08-18 19:11:00,
2013-08-18 12:16:00,74.9,64.0,29.83,ESE,106,0.0,2.0,69,0.00,,,0.00,LWC V2.00 B2112,2013-08-18 19:16:00,
2013-08-18 12:21:00,75.4,64.1,29.83,East,94,3.0,5.0,68,0.00,,,0.00,LWC V2.00 B2112,2013-08-18 19:21:00,
2013-08-18 12:26:00,74.8,63.9,29.83,ESE,122,1.0,3.0,69,0.00,,,0.00,LWC V2.00 B2112,2013-08-18 19:26:00,
2013-08-18 12:31:00,74.6,63.7,29.83,NE,46,0.0,4.0,69,0.00,,,0.00,LWC V2.00 B2112,2013-08-18 19:31:00,
2013-08-18 12:36:00,75.2,63.9,29.83,East,94,2.0,2.0,68,0.00,,,0.00,LWC V2.00 B2112,2013-08-18 19:36:00,
2013-08-18 12:41:00,75.8,64.0,29.83,ESE,111,5.0,5.0,67,0.00,,,0.00,LWC V2.00 B2112,2013-08-18 19:41:00,
2013-08-18 12:46:00,75.3,64.0,29.83,East,82,2.0,4.0,68,0.00,,,0.00,LWC V2.00 B2112,2013-08-18 19:46:00,
2013-08-18 12:51:00,75.6,63.9,29.83,SSE,156,2.0,3.0,67,0.00,,,0.00,LWC V2.00 B2112,2013-08-18 19:51:00,
2013-08-18 12:56:00,75.7,63.9,29.83,East,91,1.0,3.0,67,0.00,,,0.00,LWC V2.00 B2112,2013-08-18 19:56:00,
2013-08-18 13:01:00,75.9,63.3,29.83,WSW,242,1.0,3.0,65,0.00,,,0.00,LWC V2.00 B2112,2013-08-18 20:01:00,
2013-08-18 13:06:00,75.7,63.5,29.83,SSE,167,1.0,6.0,66,0.00,,,0.00,LWC V2.00 B2112,2013-08-18 20:06:00,
2013-08-18 13:11:00,75.3,63.6,29.82,SSW,205,0.0,2.0,67,0.00,,,0.00,LWC V2.00 B2112,2013-08-18 20:11:00,
2013-08-18 13:16:00,75.5,63.8,29.82,ESE,120,2.0,4.0,67,0.00,,,0.00,LWC V2.00 B2112,2013-08-18 20:16:00,
2013-08-18 13:21:00,75.8,64.0,29.82,ESE,108,1.0,4.0,67,0.00,,,0.00,LWC V2.00 B2112,2013-08-18 20:21:00,
2013-08-18 13:26:00,76.1,64.3,29.82,East,89,1.0,2.0,67,0.00,,,0.00,LWC V2.00 B2112,2013-08-18 20:26:00,
2013-08-18 13:31:00,76.8,64.6,29.82,ESE,104,0.0,2.0,66,0.00,,,0.00,LWC V2.00 B2112,2013-08-18 20:31:00,
2013-08-18 13:36:00,78.1,64.9,29.82,SE,127,2.0,3.0,64,0.00,,,0.00,LWC V2.00 B2112,2013-08-18 20:36:00,
2013-08-18 13:41:00,77.5,63.9,29.82,ESE,109,3.0,6.0,63,0.00,,,0.00,LWC V2.00 B2112,2013-08-18 20:41:00,
2013-08-18 13:46:00,76.3,63.6,29.82,East,99,2.0,3.0,65,0.00,,,0.00,LWC V2.00 B2112,2013-08-18 20:46:00,
2013-08-18 13:51:00,76.1,64.3,29.82,East,79,3.0,4.0,67,0.00,,,0.00,LWC V2.00 B2112,2013-08-18 20:51:00,
2013-08-18 13:56:00,75.9,64.1,29.82,ESE,114,2.0,3.0,67,0.00,,,0.00,LWC V2.00 B2112,2013-08-18 20:56:00,
2013-08-18 14:01:00,75.1,62.5,29.82,ESE,109,5.0,5.0,65,0.00,,,0.00,LWC V2.00 B2112,2013-08-18 21:01:00,
2013-08-18 14:06:00,74.1,62.8,29.82,SSE,160,1.0,2.0,68,0.00,,,0.00,LWC V2.00 B2112,2013-08-18 21:06:00,
2013-08-18 14:11:00,73.9,62.2,29.82,SW,222,3.0,6.0,67,0.00,,,0.00,LWC V2.00 B2112,2013-08-18 21:11:00,
2013-08-18 14:16:00,73.6,62.4,29.82,SSE,164,2.0,4.0,68,0.00,,,0.00,LWC V2.00 B2112,2013-08-18 21:16:00,
2013-08-18 14:21:00,72.9,61.7,29.82,SSW,201,4.0,5.0,68,0.00,,,0.00,LWC V2.00 B2112,2013-08-18 21:21:00,
2013-08-18 14:26:00,72.4,62.0,29.82,South,169,2.0,3.0,70,0.00,,,0.00,LWC V2.00 B2112,2013-08-18 21:26:00,
2013-08-18 14:31:00,72.5,62.1,29.82,SSE,159,2.0,5.0,70,0.00,,,0.00,LWC V2.00 B2112,2013-08-18 21:31:00,
2013-08-18 14:36:00,72.2,61.9,29.82,WSW,238,2.0,2.0,70,0.00,,,0.00,LWC V2.00 B2112,2013-08-18 21:36:00,
2013-08-18 14:41:00,72.0,61.3,29.82,WSW,238,7.0,7.0,69,0.00,,,0.00,LWC V2.00 B2112,2013-08-18 21:41:00,
2013-08-18 14:46:00,72.0,62.1,29.82,South,179,5.0,5.0,71,0.00,,,0.00,LWC V2.00 B2112,2013-08-18 21:46:00,
2013-08-18 14:51:00,71.9,61.6,29.82,SW,226,5.0,5.0,70,0.00,,,0.00,LWC V2.00 B2112,2013-08-18 21:51:00,
2013-08-18 14:56:00,71.3,61.0,29.82,SW,228,4.0,7.0,70,0.00,,,0.00,LWC V2.00 B2112,2013-08-18 21:56:00,
2013-08-18 15:01:00,70.6,61.1,29.82,SW,217,2.0,5.0,72,0.00,,,0.00,LWC V2.00 B2112,2013-08-18 22:01:00,
2013-08-18 15:06:00,70.6,61.5,29.81,North,1,3.0,5.0,73,0.00,,,0.00,LWC V2.00 B2112,2013-08-18 22:06:00,
2013-08-18 15:11:00,70.7,62.0,29.81,SE,131,2.0,5.0,74,0.00,,,0.00,LWC V2.00 B2112,2013-08-18 22:11:00,
2013-08-18 15:16:00,71.0,61.5,29.81,ESE,114,5.0,6.0,72,0.00,,,0.00,LWC V2.00 B2112,2013-08-18 22:16:00,
2013-08-18 15:21:00,70.7,61.6,29.81,NW,316,1.0,3.0,73,0.00,,,0.00,LWC V2.00 B2112,2013-08-18 22:21:00,
2013-08-18 15:26:00,70.7,61.2,29.81,WSW,240,1.0,6.0,72,0.00,,,0.00,LWC V2.00 B2112,2013-08-18 22:26:00,
2013-08-18 15:31:00,70.7,61.2,29.81,SW,222,7.0,7.0,72,0.00,,,0.00,LWC V2.00 B2112,2013-08-18 22:31:00,
2013-08-18 15:36:00,70.6,61.1,29.81,WSW,242,3.0,3.0,72,0.00,,,0.00,LWC V2.00 B2112,2013-08-18 22:36:00,
2013-08-18 15:41:00,70.1,60.6,29.81,ENE,63,1.0,4.0,72,0.00,,,0.00,LWC V2.00 B2112,2013-08-18 22:41:00,
2013-08-18 15:46:00,70.7,61.6,29.80,NE,56,0.0,0.0,73,0.00,,,0.00,LWC V2.00 B2112,2013-08-18 22:46:00,
2013-08-18 15:51:00,71.4,61.5,29.80,NW,306,2.0,2.0,71,0.00,,,0.00,LWC V2.00 B2112,2013-08-18 22:51:00,
2013-08-18 15:56:00,71.7,61.8,29.80,WSW,250,1.0,2.0,71,0.00,,,0.00,LWC V2.00 B2112,2013-08-18 22:56:00,
2013-08-18 16:01:00,71.7,61.8,29.80,NNW,340,1.0,4.0,71,0.00,,,0.00,LWC V2.00 B2112,2013-08-18 23:01:00,
2013-08-18 16:06:00,71.6,61.7,29.79,SW,224,2.0,5.0,71,0.00,,,0.00,LWC V2.00 B2112,2013-08-18 23:06:00,
2013-08-18 16:11:00,71.5,62.0,29.79,SSE,155,2.0,4.0,72,0.00,,,0.00,LWC V2.00 B2112,2013-08-18 23:11:00,
2013-08-18 16:16:00,71.7,62.2,29.79,SW,233,2.0,4.0,72,0.00,,,0.00,LWC V2.00 B2112,2013-08-18 23:16:00,
2013-08-18 16:21:00,71.5,61.6,29.78,WSW,238,2.0,2.0,71,0.00,,,0.00,LWC V2.00 B2112,2013-08-18 23:21:00,
2013-08-18 16:26:00,71.1,61.2,29.78,SSE,148,1.0,2.0,71,0.00,,,0.00,LWC V2.00 B2112,2013-08-18 23:26:00,
2013-08-18 16:31:00,70.9,61.4,29.78,SE,143,1.0,3.0,72,0.00,,,0.00,LWC V2.00 B2112,2013-08-18 23:31:00,
2013-08-18 16:36:00,70.6,61.1,29.78,West,260,3.0,4.0,72,0.00,,,0.00,LWC V2.00 B2112,2013-08-18 23:36:00,
2013-08-18 16:41:00,70.3,60.8,29.78,SE,129,1.0,4.0,72,0.00,,,0.00,LWC V2.00 B2112,2013-08-18 23:41:00,
2013-08-18 16:46:00,69.9,60.5,29.78,SSE,149,1.0,6.0,72,0.00,,,0.00,LWC V2.00 B2112,2013-08-18 23:46:00,
2013-08-18 16:51:00,69.3,60.3,29.78,ESE,122,0.0,4.0,73,0.00,,,0.00,LWC V2.00 B2112,2013-08-18 23:51:00,
2013-08-18 16:56:00,69.1,60.5,29.78,South,177,1.0,1.0,74,0.00,,,0.00,LWC V2.00 B2112,2013-08-18 23:56:00,
2013-08-18 17:01:00,68.7,60.1,29.78,SW,216,1.0,2.0,74,0.00,,,0.00,LWC V2.00 B2112,2013-08-19 00:01:00,
2013-08-18 17:06:00,68.3,59.7,29.78,SSW,212,3.0,3.0,74,0.00,,,0.00,LWC V2.00 B2112,2013-08-19 00:06:00,
2013-08-18 17:11:00,67.8,59.6,29.78,SW,217,2.0,5.0,75,0.00,,,0.00,LWC V2.00 B2112,2013-08-19 00:11:00,
2013-08-18 17:16:00,67.4,59.6,29.78,SSE,153,0.0,3.0,76,0.00,,,0.00,LWC V2.00 B2112,2013-08-19 00:16:00,
2013-08-18 17:21:00,67.1,59.3,29.78,East,81,2.0,4.0,76,0.00,,,0.00,LWC V2.00 B2112,2013-08-19 00:21:00,
2013-08-18 17:26:00,67.2,59.7,29.77,ESE,105,1.0,1.0,77,0.00,,,0.00,LWC V2.00 B2112,2013-08-19 00:26:00,
2013-08-18 17:31:00,67.4,59.6,29.77,SE,134,1.0,4.0,76,0.00,,,0.00,LWC V2.00 B2112,2013-08-19 00:31:00,
2013-08-18 17:36:00,67.3,59.5,29.77,ENE,63,1.0,1.0,76,0.00,,,0.00,LWC V2.00 B2112,2013-08-19 00:36:00,
2013-08-18 17:41:00,67.3,59.8,29.77,ESE,105,0.0,2.0,77,0.00,,,0.00,LWC V2.00 B2112,2013-08-19 00:41:00,
2013-08-18 17:46:00,67.5,60.0,29.77,NNW,337,1.0,4.0,77,0.00,,,0.00,LWC V2.00 B2112,2013-08-19 00:46:00,
2013-08-18 17:51:00,67.5,60.0,29.77,ENE,74,0.0,3.0,77,0.00,,,0.00,LWC V2.00 B2112,2013-08-19 00:51:00,
2013-08-18 17:56:00,67.4,59.9,29.77,ESE,122,0.0,1.0,77,0.00,,,0.00,LWC V2.00 B2112,2013-08-19 00:56:00,
2013-08-18 18:01:00,67.4,59.9,29.76,NNW,340,0.0,0.0,77,0.00,,,0.00,LWC V2.00 B2112,2013-08-19 01:01:00,
2013-08-18 18:06:00,67.5,60.0,29.77,SSW,211,0.0,2.0,77,0.00,,,0.00,LWC V2.00 B2112,2013-08-19 01:06:00,
2013-08-18 18:11:00,67.5,60.0,29.76,SSW,203,0.0,1.0,77,0.00,,,0.00,LWC V2.00 B2112,2013-08-19 01:11:00,
2013-08-18 18:16:00,67.6,60.1,29.76,West,276,0.0,0.0,77,0.00,,,0.00,LWC V2.00 B2112,2013-08-19 01:16:00,
2013-08-18 18:21:00,67.7,60.2,29.76,SW,224,0.0,0.0,77,0.00,,,0.00,LWC V2.00 B2112,2013-08-19 01:21:00,
2013-08-18 18:26:00,67.7,60.2,29.76,WSW,248,2.0,3.0,77,0.00,,,0.00,LWC V2.00 B2112,2013-08-19 01:26:00,
2013-08-18 18:31:00,67.6,60.1,29.76,WSW,252,3.0,3.0,77,0.00,,,0.00,LWC V2.00 B2112,2013-08-19 01:31:00,
2013-08-18 18:36:00,67.3,59.8,29.76,SSW,211,1.0,3.0,77,0.00,,,0.00,LWC V2.00 B2112,2013-08-19 01:36:00,
2013-08-18 18:41:00,67.1,59.6,29.76,SSW,195,1.0,3.0,77,0.00,,,0.00,LWC V2.00 B2112,2013-08-19 01:41:00,
2013-08-18 18:46:00,66.8,59.0,29.76,SSW,210,0.0,2.0,76,0.00,,,0.00,LWC V2.00 B2112,2013-08-19 01:46:00,
2013-08-18 18:51:00,66.5,59.1,29.76,SE,131,1.0,1.0,77,0.00,,,0.00,LWC V2.00 B2112,2013-08-19 01:51:00,
2013-08-18 18:56:00,66.1,58.7,29.76,SE,127,0.0,2.0,77,0.00,,,0.00,LWC V2.00 B2112,2013-08-19 01:56:00,
2013-08-18 19:01:00,65.9,58.5,29.76,WNW,287,1.0,2.0,77,0.00,,,0.00,LWC V2.00 B2112,2013-08-19 02:01:00,
2013-08-18 19:06:00,65.6,58.2,29.75,ESE,117,0.0,0.0,77,0.00,,,0.00,LWC V2.00 B2112,2013-08-19 02:06:00,
2013-08-18 19:11:00,65.4,58.4,29.76,NNE,23,0.0,1.0,78,0.00,,,0.00,LWC V2.00 B2112,2013-08-19 02:11:00,
2013-08-18 19:16:00,65.2,58.2,29.76,East,82,0.0,1.0,78,0.00,,,0.00,LWC V2.00 B2112,2013-08-19 02:16:00,
2013-08-18 19:21:00,64.9,57.9,29.76,WSW,253,0.0,1.0,78,0.00,,,0.00,LWC V2.00 B2112,2013-08-19 02:21:00,
2013-08-18 19:26:00,64.6,57.9,29.76,SSE,165,0.0,1.0,79,0.00,,,0.00,LWC V2.00 B2112,2013-08-19 02:26:00,
2013-08-18 19:31:00,64.4,57.7,29.76,WSW,239,0.0,1.0,79,0.00,,,0.00,LWC V2.00 B2112,2013-08-19 02:31:00,
2013-08-18 19:36:00,64.1,57.8,29.76,South,191,0.0,1.0,80,0.00,,,0.00,LWC V2.00 B2112,2013-08-19 02:36:00,
2013-08-18 19:41:00,63.8,57.5,29.76,ESE,119,0.0,0.0,80,0.00,,,0.00,LWC V2.00 B2112,2013-08-19 02:41:00,
2013-08-18 19:46:00,63.5,57.2,29.76,ESE,119,0.0,0.0,80,0.00,,,0.00,LWC V2.00 B2112,2013-08-19 02:46:00,
2013-08-18 19:51:00,63.2,57.3,29.76,ESE,119,0.0,0.0,81,0.00,,,0.00,LWC V2.00 B2112,2013-08-19 02:51:00,
2013-08-18 19:56:00,62.9,57.0,29.76,ESE,119,0.0,0.0,81,0.00,,,0.00,LWC V2.00 B2112,2013-08-19 02:56:00,
2013-08-18 20:01:00,62.5,56.6,29.76,ESE,118,0.0,0.0,81,0.00,,,0.00,LWC V2.00 B2112,2013-08-19 03:01:00,
2013-08-18 20:06:00,62.2,56.6,29.76,SE,133,0.0,0.0,82,0.00,,,0.00,LWC V2.00 B2112,2013-08-19 03:06:00,
2013-08-18 20:11:00,62.0,56.4,29.76,SE,132,0.0,0.0,82,0.00,,,0.00,LWC V2.00 B2112,2013-08-19 03:11:00,
2013-08-18 20:16:00,61.7,56.5,29.76,SE,133,0.0,0.0,83,0.00,,,0.00,LWC V2.00 B2112,2013-08-19 03:16:00,
2013-08-18 20:21:00,61.4,56.2,29.76,SE,133,0.0,0.0,83,0.00,,,0.00,LWC V2.00 B2112,2013-08-19 03:21:00,
2013-08-18 20:26:00,61.1,55.9,29.76,SE,133,0.0,0.0,83,0.00,,,0.00,LWC V2.00 B2112,2013-08-19 03:26:00,
2013-08-18 20:31:00,60.9,55.7,29.76,SE,133,0.0,0.0,83,0.00,,,0.00,LWC V2.00 B2112,2013-08-19 03:31:00,
2013-08-18 20:36:00,60.7,55.8,29.76,SE,133,0.0,0.0,84,0.00,,,0.00,LWC V2.00 B2112,2013-08-19 03:36:00,
2013-08-18 20:41:00,60.4,55.5,29.77,SE,132,0.0,0.0,84,0.00,,,0.00,LWC V2.00 B2112,2013-08-19 03:41:00,
2013-08-18 20:46:00,60.2,55.3,29.77,SE,133,0.0,0.0,84,0.00,,,0.00,LWC V2.00 B2112,2013-08-19 03:46:00,
2013-08-18 20:51:00,60.0,55.1,29.77,SE,132,0.0,0.0,84,0.00,,,0.00,LWC V2.00 B2112,2013-08-19 03:51:00,
2013-08-18 20:56:00,59.8,55.0,29.76,SE,132,0.0,0.0,84,0.00,,,0.00,LWC V2.00 B2112,2013-08-19 03:56:00,
2013-08-18 21:01:00,59.6,54.8,29.77,SE,132,0.0,0.0,84,0.00,,,0.00,LWC V2.00 B2112,2013-08-19 04:01:00,
2013-08-18 21:06:00,59.4,54.6,29.77,SE,133,0.0,0.0,84,0.00,,,0.00,LWC V2.00 B2112,2013-08-19 04:06:00,
2013-08-18 21:11:00,59.2,54.4,29.77,SE,133,0.0,0.0,84,0.00,,,0.00,LWC V2.00 B2112,2013-08-19 04:11:00,
2013-08-18 21:16:00,59.1,54.3,29.77,SE,133,0.0,0.0,84,0.00,,,0.00,LWC V2.00 B2112,2013-08-19 04:16:00,
2013-08-18 21:20:00,59.0,54.5,29.77,SE,133,0.0,0.0,85,0.00,,,0.00,LWC V2.00 B2112,2013-08-19 04:20:00,
2013-08-18 21:21:00,58.9,54.4,29.77,SE,133,0.0,0.0,85,0.00,,,0.00,LWC V2.00 B2112,2013-08-19 04:21:00,
2013-08-18 21:30:00,58.8,54.3,29.77,North,0,0.0,0.0,85,0.00,,,0.00,LWC V2.00 B2112,2013-08-19 04:30:00,
2013-08-18 21:40:00,58.8,54.3,29.77,North,0,0.0,0.0,85,0.00,,,0.00,LWC V2.00 B2112,2013-08-19 04:40:00,
2013-08-18 21:50:00,58.8,54.3,29.77,North,0,0.0,0.0,85,0.00,,,0.00,LWC V2.00 B2112,2013-08-19 04:50:00,
2013-08-18 22:00:00,57.7,53.2,29.77,North,0,0.0,0.0,85,0.00,,,0.00,LWC V2.00 B2112,2013-08-19 05:00:00,
2013-08-18 22:10:00,57.7,53.2,29.77,North,0,0.0,0.0,85,0.00,,,0.00,LWC V2.00 B2112,2013-08-19 05:10:00,
2013-08-18 22:20:00,57.7,53.2,29.77,North,0,0.0,0.0,85,0.00,,,0.00,LWC V2.00 B2112,2013-08-19 05:20:00,
2013-08-18 22:30:00,57.0,52.5,29.77,North,0,0.0,0.0,85,0.00,,,0.00,LWC V2.00 B2112,2013-08-19 05:30:00,
2013-08-18 22:40:00,57.0,52.5,29.77,North,0,0.0,0.0,85,0.00,,,0.00,LWC V2.00 B2112,2013-08-19 05:40:00,
2013-08-18 22:50:00,57.0,52.5,29.77,North,0,0.0,0.0,85,0.00,,,0.00,LWC V2.00 B2112,2013-08-19 05:50:00,
2013-08-18 23:00:00,56.5,52.0,29.76,North,0,0.0,0.0,85,0.00,,,0.00,LWC V2.00 B2112,2013-08-19 06:00:00,
2013-08-18 23:10:00,56.5,52.0,29.76,North,0,0.0,0.0,85,0.00,,,0.00,LWC V2.00 B2112,2013-08-19 06:10:00,
2013-08-18 23:20:00,56.5,52.0,29.76,North,0,0.0,0.0,85,0.00,,,0.00,LWC V2.00 B2112,2013-08-19 06:20:00,
2013-08-18 23:30:00,56.2,51.7,29.77,North,0,0.0,0.0,85,0.00,,,0.00,LWC V2.00 B2112,2013-08-19 06:30:00,
2013-08-18 23:40:00,56.2,51.7,29.77,North,0,0.0,0.0,85,0.00,,,0.00,LWC V2.00 B2112,2013-08-19 06:40:00,
2013-08-18 23:50:00,56.2,51.7,29.77,North,0,0.0,0.0,85,0.00,,,0.00,LWC V2.00 B2112,2013-08-19 06:50:00,